| time (UTC) | temp F | wind direction | speed knots | gust knots | rain 1hr in | rain 24hr in | rain mn in | humidity % | barometer mb |
| 20260504050012 | 48 | 34 | 0.0 | 0.0 | 0.00 | 0.00 | 0.00 | 82 | 1006.7 |
| 20260504044519 | 48 | 34 | 0.0 | 0.0 | 0.00 | 0.00 | 0.00 | 81 | 1006.7 |
| 20260504043011 | 49 | 34 | 0.0 | 0.0 | 0.00 | 0.00 | 0.00 | 80 | 1006.8 |
| 20260504041506 | 50 | 34 | 0.0 | 0.0 | 0.00 | 0.00 | 0.00 | 80 | 1006.9 |
| 20260504040005 | 51 | 30 | 0.0 | 0.0 | 0.00 | 0.00 | 0.00 | 77 | 1006.8 |
| 20260504034504 | 52 | 30 | 0.0 | 0.0 | 0.00 | 0.00 | 0.00 | 77 | 1006.9 |
| 20260504033004 | 52 | 30 | 0.0 | 0.0 | 0.00 | 0.00 | 0.00 | 76 | 1007.0 |
| 20260504031505 | 53 | 30 | 0.0 | 0.0 | 0.00 | 0.00 | 0.00 | 74 | 1006.9 |
| 20260504030006 | 54 | 30 | 0.0 | 0.0 | 0.00 | 0.00 | 0.00 | 72 | 1006.9 |
| 20260504024505 | 56 | 30 | 0.0 | 0.0 | 0.00 | 0.00 | 0.00 | 69 | 1006.8 |
| 20260504023002 | 58 | 345 | 0.0 | 0.0 | 0.00 | 0.00 | 0.00 | 65 | 1006.7 |
| 20260504021502 | 61 | 238 | 0.0 | 0.0 | 0.00 | 0.00 | 0.00 | 60 | 1006.6 |
| 20260504014600 | 65 | 284 | 0.0 | 0.0 | 0.00 | 0.00 | 0.00 | 51 | 1006.4 |
| 20260504013111 | 66 | 244 | 0.0 | 0.0 | 0.00 | 0.00 | 0.00 | 48 | 1006.3 |
| 20260504011600 | 67 | 234 | 0.0 | 0.0 | 0.00 | 0.00 | 0.00 | 48 | 1006.2 |
| 20260504010114 | 69 | 268 | 0.0 | 0.0 | 0.00 | 0.00 | 0.00 | 45 | 1006.1 |
| 20260504004625 | 70 | 263 | 0.0 | 0.0 | 0.00 | 0.00 | 0.00 | 43 | 1005.9 |
| 20260504003058 | 70 | 331 | 0.0 | 0.9 | 0.00 | 0.00 | 0.00 | 42 | 1005.8 |
| 20260504001607 | 71 | 288 | 0.9 | 6.1 | 0.00 | 0.00 | 0.00 | 41 | 1005.8 |
| 20260504000057 | 72 | 303 | 2.6 | 9.6 | 0.00 | 0.00 | 0.00 | 39 | 1005.7 |
| 20260503234557 | 72 | 284 | 1.7 | 7.0 | 0.00 | 0.00 | 0.00 | 40 | 1005.5 |
| 20260503233058 | 72 | 259 | 1.7 | 7.0 | 0.00 | 0.00 | 0.00 | 40 | 1005.5 |
| 20260503231557 | 73 | 290 | 0.9 | 9.6 | 0.00 | 0.00 | 0.00 | 40 | 1005.6 |
| 20260503230059 | 73 | 245 | 1.7 | 10.4 | 0.00 | 0.00 | 0.00 | 43 | 1005.8 |
| 20260503224552 | 73 | 334 | 2.6 | 10.4 | 0.00 | 0.00 | 0.00 | 43 | 1005.9 |
| 20260503223057 | 73 | 289 | 0.9 | 7.0 | 0.00 | 0.00 | 0.00 | 43 | 1006.0 |
| 20260503221551 | 73 | 253 | 2.6 | 10.4 | 0.00 | 0.00 | 0.00 | 44 | 1006.0 |
| 20260503220047 | 72 | 267 | 1.7 | 11.3 | 0.00 | 0.00 | 0.00 | 45 | 1006.0 |
| 20260503214546 | 72 | 227 | 1.7 | 12.2 | 0.00 | 0.00 | 0.00 | 47 | 1006.0 |
| 20260503213100 | 72 | 309 | 2.6 | 10.4 | 0.00 | 0.00 | 0.00 | 47 | 1006.0 |
| 20260503211542 | 71 | 284 | 3.5 | 12.2 | 0.00 | 0.00 | 0.00 | 47 | 1006.2 |
| 20260503210048 | 71 | 246 | 1.7 | 12.2 | 0.00 | 0.00 | 0.00 | 47 | 1006.3 |
| 20260503204547 | 70 | 252 | 2.6 | 13.0 | 0.00 | 0.00 | 0.00 | 51 | 1006.4 |
| 20260503203034 | 69 | 225 | 1.7 | 19.1 | 0.00 | 0.00 | 0.00 | 51 | 1006.6 |
| 20260503201532 | 68 | 213 | 2.6 | 16.5 | 0.00 | 0.00 | 0.00 | 50 | 1006.8 |
| 20260503200029 | 69 | 221 | 2.6 | 11.3 | 0.00 | 0.00 | 0.00 | 54 | 1007.2 |
| 20260503194527 | 68 | 233 | 2.6 | 15.6 | 0.00 | 0.00 | 0.00 | 51 | 1007.6 |
| 20260503193033 | 67 | 235 | 2.6 | 16.5 | 0.00 | 0.00 | 0.00 | 52 | 1007.8 |
| 20260503191523 | 67 | 218 | 2.6 | 13.0 | 0.00 | 0.00 | 0.00 | 54 | 1007.9 |
| 20260503190024 | 67 | 212 | 1.7 | 15.6 | 0.00 | 0.00 | 0.00 | 51 | 1008.0 |
| 20260503184533 | 66 | 248 | 4.3 | 14.8 | 0.00 | 0.00 | 0.00 | 54 | 1008.2 |
| 20260503183017 | 66 | 235 | 2.6 | 14.8 | 0.00 | 0.00 | 0.00 | 52 | 1008.2 |
| 20260503181516 | 65 | 254 | 2.6 | 17.4 | 0.00 | 0.00 | 0.00 | 53 | 1008.2 |
| 20260503180022 | 65 | 218 | 2.6 | 14.8 | 0.00 | 0.00 | 0.00 | 55 | 1008.5 |
| 20260503174511 | 65 | 230 | 3.5 | 15.6 | 0.00 | 0.00 | 0.00 | 54 | 1008.6 |
| 20260503173014 | 64 | 230 | 3.5 | 17.4 | 0.00 | 0.00 | 0.00 | 57 | 1008.8 |
| 20260503171506 | 64 | 253 | 3.5 | 16.5 | 0.00 | 0.00 | 0.00 | 55 | 1009.0 |
| 20260503100106 | 51 | 240 | 0.9 | 7.0 | 0.00 | 0.00 | 0.00 | 57 | 1013.0 |
| 20260503081547 | 51 | 257 | 1.7 | 8.7 | 0.00 | 0.00 | 0.00 | 56 | 1014.0 |
| 20260503071542 | 50 | 250 | 2.6 | 10.4 | 0.00 | 0.00 | 0.00 | 56 | 1014.5 |
| 20260503054532 | 52 | 227 | 2.6 | 11.3 | 0.00 | 0.00 | 0.00 | 51 | 1015.1 |
| 20260503053029 | 52 | 213 | 1.7 | 9.6 | 0.00 | 0.00 | 0.00 | 49 | 1015.2 |